Regional Weather Roundup
Issued by NWS

Home | Current Version | Previous Version | Graphics & Text | Print | Product List | Glossary On
Versions: 1 2 3 4 5 6 7 8 9 10 11 12 13 14 15 16 17 18 19 20 21 22 23 24 25 26 27 28 29 30 31 32 33 34 35 36 37 38 39 40 41 42 43 44 45 46 47 48 49 50
000
ASUS44 KMEG 130100
RWRTN
TENNESSEE HOURLY STATE WEATHER ROUNDUP
NATIONAL WEATHER SERVICE MEMPHIS TN
700 PM CST TUE DEC 12 2017

TNZ002-004-019-021-049-052-054-088>092-130200-
WEST TENNESSEE

CITY           SKY/WX    TMP DP  RH WIND       PRES   REMARKS
MEMPHIS INTL   CLEAR     38  21  50 W5        30.17R WCI  34
NWS MEMPHIS      N/A     37 N/A N/A MISG        N/A
JACKSON        CLEAR     32  17  54 CALM      30.16R
DYERSBURG      CLEAR     33  21  61 CALM      30.17R
$$

TNZ008-025-027-028-033-062-065-066-130200-
NORTH MIDDLE TENNESSEE

CITY           SKY/WX    TMP DP  RH WIND       PRES   REMARKS
NASHVILLE      CLEAR     33   8  35 NW8       30.12R WCI  26
CLARKSVILLE    CLEAR     30   6  36 NW8       30.13R WCI  22
SMYRNA         CLEAR     32  12  43 NW8       30.13R WCI  25
CROSSVILLE     CLEAR     27   8  44 NW10      30.00R WCI  17
$$

TNZ061-075-076-078-094-096-097-130200-
SOUTH MIDDLE TENNESSEE

CITY           SKY/WX    TMP DP  RH WIND       PRES   REMARKS
$$

TNZ017-018-042-046-047-130200-
NORTHEAST TENNESSEE

CITY           SKY/WX    TMP DP  RH WIND       PRES   REMARKS
TRI CITIES     MOCLDY    31   8  38 W21G30    29.90R WCI  18
$$

TNZ012-013-036-069-073-074-130200-
CENTRAL EAST TENNESSEE

CITY           SKY/WX    TMP DP  RH WIND       PRES   REMARKS
KNOXVILLE      PTCLDY    34  15  46 W12       30.00R WCI  25
OAK RIDGE      CLEAR     33  14  45 VRB3      30.03R
$$

TNZ083-085-099-130200-
SOUTHEAST TENNESSEE

CITY           SKY/WX    TMP DP  RH WIND       PRES   REMARKS
CHATTANOOGA    CLEAR     37  16  42 NW10G18   30.05R WCI  30
$$

SKY/WX REPORTED AS FAIR MEANS FEW OR NO CLOUDS BELOW
12 THOUSAND FEET.





USA.gov is the U.S. government's official web portal to all federal, state and local government web resources and services.